Voltar ao catálogo

COSMOS 2615

AtivoMilitarSSO
NORAD 68826·PAYLOAD·🇷🇺 Russia

Lançado Apr 23, 2026 de Plesetsk Cosmodrome

Loading…

Próximas Passagens (próximas 24 horas)

TLE

AtualizadoSource: Space-Track

Época: Sep 14, 2026, 12:30 UTC

1 68826U 26090A   26257.52090395  .00033528  00000-0  13444-3 0  9992
2 68826  96.6347 172.8285 0011318  66.1437 294.1021 15.86336452 22838

Acompanhe COSMOS 2615 em tempo real com AllMySat

Download on the App Store